IRIDIUM 28 [-]

Last updated on Wed Jun 28 2023 00:03:02 GMT+0000 (Coordinated Universal Time)

1 24948U 97051E 23178.28410383 .00000476 00000+0 15665-3 0 9991 2 24948 86.3959 83.9710 0001911 81.4688 278.6726 14.36216119350408
UTC large
Height (km)
Speed (km/s)
/
Latitude / Longitude
Inclination (degrees)
Orbital Period (minutes)
Azimuth
Elevation
Range (km)
Doppler Factor

Next 0 passes for location: London (51.5072 / 0.1276)

Sorry there are no passes over London.